FW0639 Weather Reports


Display with metric or nautical units.
time (UTC)temp
F
wind
direction
speed
MPH
gust
MPH
rain 1hr
in
rain 24hr
in
rain mn
in
humidity
%
barometer
mb
20260505010843 48 353 2.0 10.0 0.00 0.00 0.00 43 1013.8
20260505005901 48 355 3.0 8.0 0.00 0.00 0.00 42 1013.7
20260505004829 48 347 1.0 5.0 0.00 0.00 0.00 43 1013.6
20260505003824 49 345 2.0 8.0 0.00 0.00 0.00 43 1013.6
20260505002812 49 353 2.0 10.0 0.00 0.00 0.00 43 1013.5
20260505001743 49 328 3.0 12.0 0.00 0.00 0.00 43 1013.4
20260505000721 49 353 2.0 17.0 0.00 0.00 0.00 43 1013.1
20260504235730 49 351 2.0 17.0 0.00 0.00 0.00 43 1012.9
20260504233542 50 348 2.0 9.0 0.00 0.00 0.00 45 1012.7
20260504231410 50 349 2.0 14.0 0.00 0.00 0.00 44 1012.4
20260504230356 50 345 3.0 14.0 0.00 0.00 0.00 45 1012.4
20260504225411 51 343 3.0 10.0 0.00 0.00 0.00 45 1012.3
20260504224430 51 347 1.0 6.0 0.00 0.00 0.00 44 1012.1
20260504223403 51 344 2.0 10.0 0.00 0.00 0.00 45 1012.0
20260504222335 51 345 2.0 13.0 0.00 0.00 0.00 44 1012.0
20260504221354 51 343 3.0 13.0 0.00 0.00 0.00 44 1011.9
20260504220408 51 342 3.0 10.0 0.00 0.00 0.00 47 1011.8
20260504214305 51 342 2.0 16.0 0.00 0.00 0.00 49 1011.9
20260504213234 51 339 4.0 11.0 0.00 0.00 0.00 47 1012.0
20260504212257 52 340 3.0 12.0 0.00 0.00 0.00 48 1012.0
20260504210148 51 340 3.0 10.0 0.00 0.00 0.00 48 1012.2
20260504205203 51 338 3.0 13.0 0.00 0.00 0.00 48 1012.1
20260504204140 50 340 3.0 13.0 0.00 0.00 0.00 48 1012.1
20260504203203 51 340 2.0 12.0 0.00 0.00 0.00 48 1012.1
20260504202202 51 340 3.0 12.0 0.00 0.00 0.00 46 1012.2
20260504201214 52 339 3.0 12.0 0.00 0.00 0.00 45 1012.0
20260504200226 51 341 3.0 13.0 0.00 0.00 0.00 46 1012.0
20260504195202 51 338 3.0 13.0 0.00 0.00 0.00 46 1011.9
20260504194219 50 343 3.0 13.0 0.00 0.00 0.00 46 1011.9
20260504193240 50 344 2.0 13.0 0.00 0.00 0.00 48 1012.0
20260504192243 50 342 2.0 13.0 0.00 0.00 0.00 49 1012.1
20260504191302 50 343 2.0 9.0 0.00 0.00 0.00 47 1012.1
20260504190259 50 343 2.0 9.0 0.00 0.00 0.00 51 1012.0
20260504185317 50 342 1.0 8.0 0.00 0.00 0.00 52 1012.1
20260504184301 50 340 2.0 7.0 0.00 0.00 0.00 53 1012.2
20260504183239 50 344 2.0 13.0 0.00 0.00 0.00 52 1012.2
20260504182227 49 343 2.0 13.0 0.00 0.00 0.00 51 1012.4
20260504181154 49 344 2.0 14.0 0.00 0.00 0.00 50 1012.2
20260504180205 50 342 3.0 14.0 0.00 0.00 0.00 53 1012.2
20260504175133 50 341 3.0 14.0 0.00 0.00 0.00 52 1012.2
20260504174105 50 339 3.0 14.0 0.00 0.00 0.00 51 1012.1
20260504173130 50 341 2.0 12.0 0.00 0.00 0.00 53 1012.0
20260504172121 49 342 3.0 10.0 0.00 0.00 0.00 52 1012.0
20260504171128 50 340 2.0 12.0 0.00 0.00 0.00 52 1012.0
20260504170140 50 338 3.0 12.0 0.00 0.00 0.00 50 1012.1
20260504150759 45 210 2.0 6.0 0.00 0.00 0.00 65 1012.3
20260504140628 44 38 3.0 10.0 0.00 0.00 0.00 66 1012.6
20260504130659 43 53 1.0 2.0 0.00 0.00 0.00 71 1012.4
20260504110342 46 39 0.0 4.0 0.00 0.00 0.00 61 1012.0
20260504100416 47 28 0.0 0.0 0.00 0.00 0.00 60 1011.8
20260504050132 46 37 1.0 2.0 0.00 0.00 0.00 59 1005.6
20260504045058 47 35 0.0 0.0 0.00 0.00 0.00 59 1005.5
20260504044035 47 32 0.0 1.0 0.00 0.00 0.00 58 1005.5
20260504043010 47 29 0.0 2.0 0.00 0.00 0.00 60 1005.5
20260504041954 48 26 0.0 0.0 0.00 0.00 0.00 57 1005.5
20260504041014 48 22 1.0 2.0 0.00 0.00 0.00 57 1005.3
20260504034902 50 10 1.0 2.0 0.00 0.00 0.00 54 1005.4
20260504032741 53 1 0.0 2.0 0.00 0.00 0.00 47 1005.3
20260504031746 55 359 0.0 2.0 0.00 0.00 0.00 44 1005.2
20260504030739 57 351 0.0 2.0 0.00 0.00 0.00 41 1005.1
20260504025715 59 355 0.0 0.0 0.00 0.00 0.00 38 1005.1
20260504024644 60 351 0.0 0.0 0.00 0.00 0.00 38 1005.0
20260504023654 62 347 0.0 0.0 0.00 0.00 0.00 32 1004.8
20260504022640 63 345 0.0 0.0 0.00 0.00 0.00 31 1004.8
20260504021608 64 345 1.0 4.0 0.00 0.00 0.00 30 1004.8
20260504020540 65 343 1.0 3.0 0.00 0.00 0.00 29 1004.8
20260504015539 66 342 0.0 1.0 0.00 0.00 0.00 30 1004.7
20260504014526 67 339 0.0 0.0 0.00 0.00 0.00 29 1004.8
20260504013533 67 340 1.0 10.0 0.00 0.00 0.00 26 1004.8
20260504012518 68 353 1.0 5.0 0.00 0.00 0.00 26 1004.8